Powrót do katalogu

COSMOS 2251 DEB

AktywnyLEO
NORAD 37118·DEBRIS·🇷🇺 Russia

Wystrzelony Jun 16, 1993 z Plesetsk Cosmodrome

Loading…

Następne Przeloty (najbliższe 24 godziny)

TLE

ŚwieżeSource: Space-Track

Epoka: Sep 13, 2026, 08:54 UTC

1 37118U 93036BGQ 26256.37151057  .00007387  00000-0  86732-3 0  9995
2 37118  74.0105 259.8921 0008684 277.1985  82.8206 14.85062514696205

Śledź COSMOS 2251 DEB w czasie rzeczywistym z AllMySat

Download on the App Store